Crosby, ND

7:53 PM CST on November 20, 2019 (GMT -0600)
Crosby

Weather History for KD50 - September, 2019

Change the Weather History Date:

Saturday, September 14, 2019

  Actual Average (KISN) Record (KISN)
Temperature  
Mean Temperature 62 °F -  
Max Temperature 75 °F 70 °F 94 °F (1946)
Min Temperature 50 °F 43 °F 22 °F (1993)
Degree Days  
Heating Degree Days 2    
Growing Degree Days 12 (Base 50)    
Moisture  
Dew Point 50 °F    
Average Humidity 72    
Maximum Humidity 100    
Minimum Humidity 34    
Precipitation  
Precipitation 0.00 in - - ()
Sea Level Pressure  
Sea Level Pressure 29.86 in    
Wind  
Wind Speed 10 mph (SW)    
Max Wind Speed 18 mph    
Max Gust Speed 26 mph    
Visibility 10 miles    
Events      
Averages and records for this station are not official NWS values.
T = Trace of Precipitation, MM = Missing Value Source: NWS Daily Summary

Daily Weather History Graph

Daily Weather History Graph

Search for Another Location

Airport or City:

Astronomy

Sep. 14, 2019 Rise Set
Actual Time 7:28 AM CDT 8:08 PM CDT
Civil Twilight 6:56 AM CDT 8:40 PM CDT
Nautical Twilight 6:18 AM CDT 9:18 PM CDT
Astronomical Twilight 5:38 AM CDT 9:57 PM CDT
Moon 8:50 PM CDT (9/14) 7:40 AM CDT (9/14)
Length of Visible Light 13h 44m
Length of Day
12h 40m
Full, 100% of the Moon is Illuminated
Sep 14
Full
Sep 21
Last Quarter
Sep 28
New
Oct 5
First Quarter
Oct 13
Full

Hourly Weather History & Observations

Time (CDT) Temp. Dew Point Humidity Pressure Visibility Wind Dir Wind Speed Gust Speed Precip Events Conditions
12:15 AM 55.4 °F 55.4 °F 100% 29.92 in 10.0 mi SSW 12.7 mph - N/A   Clear
12:35 AM 57.2 °F 55.4 °F 94% 29.91 in 10.0 mi SSW 9.2 mph - N/A   Clear
12:55 AM 55.4 °F 55.4 °F 100% 29.90 in 10.0 mi SSW 12.7 mph - N/A   Clear
1:15 AM 55.4 °F 55.4 °F 100% 29.89 in 10.0 mi South 11.5 mph - N/A   Clear
1:35 AM - - N/A% 29.89 in 10.0 mi SSW 10.4 mph - N/A   Clear
1:55 AM 53.6 °F 53.6 °F 100% 29.89 in 10.0 mi South 16.1 mph - N/A   Mostly Cloudy
2:15 AM 55.4 °F 55.4 °F 100% 29.88 in 10.0 mi South 5.8 mph - N/A   Mostly Cloudy
2:35 AM 55.4 °F 55.4 °F 100% 29.87 in 10.0 mi South 8.1 mph 13.8 mph N/A   Mostly Cloudy
2:55 AM 53.6 °F 53.6 °F 100% 29.86 in 10.0 mi SSW 8.1 mph - N/A   Scattered Clouds
3:15 AM 53.6 °F 53.6 °F 100% 29.86 in 10.0 mi Calm Calm - N/A   Scattered Clouds
3:35 AM 53.6 °F 53.6 °F 100% 29.86 in 10.0 mi Calm Calm - N/A   Overcast
3:55 AM 53.6 °F 53.6 °F 100% 29.87 in 10.0 mi SSW 6.9 mph - N/A   Overcast
4:15 AM 53.6 °F 53.6 °F 100% 29.87 in 10.0 mi South 5.8 mph - N/A   Mostly Cloudy
4:35 AM 53.6 °F 53.6 °F 100% 29.87 in 10.0 mi South 8.1 mph - N/A   Mostly Cloudy
4:55 AM 53.6 °F 53.6 °F 100% 29.86 in 10.0 mi South 10.4 mph - N/A   Partly Cloudy
5:15 AM 51.8 °F 51.8 °F 100% 29.86 in 10.0 mi SSW 10.4 mph - N/A   Clear
5:35 AM 51.8 °F 51.8 °F 100% 29.86 in 10.0 mi SSW 8.1 mph - N/A   Clear
5:55 AM 50.0 °F 50.0 °F 100% 29.85 in 10.0 mi SSW 11.5 mph - N/A   Clear
6:15 AM 50.0 °F 50.0 °F 100% 29.85 in 10.0 mi South 9.2 mph - N/A   Clear
6:35 AM 50.0 °F 50.0 °F 100% 29.85 in 10.0 mi SSW 10.4 mph - N/A   Clear
6:55 AM 50.0 °F 50.0 °F 100% 29.86 in 10.0 mi South 8.1 mph - N/A   Clear
7:15 AM - - N/A% 29.86 in 10.0 mi SSW 10.4 mph - N/A   Clear
7:35 AM - - N/A% 29.86 in 10.0 mi SSW 9.2 mph - N/A   Clear
7:55 AM 50.0 °F 50.0 °F 100% 29.87 in 10.0 mi SSW 6.9 mph - N/A   Clear
8:15 AM 51.8 °F 51.8 °F 100% 29.87 in 10.0 mi SSW 6.9 mph - N/A   Clear
8:35 AM 51.8 °F 51.8 °F 100% 29.87 in 10.0 mi SW 3.5 mph - N/A   Clear
8:55 AM 53.6 °F 53.6 °F 100% 29.87 in 10.0 mi SSW 6.9 mph - N/A   Clear
9:15 AM 55.4 °F 53.6 °F 94% 29.88 in 10.0 mi SSW 8.1 mph - N/A   Clear
9:35 AM 57.2 °F 51.8 °F 82% 29.88 in 10.0 mi West 9.2 mph - N/A   Clear
9:55 AM 59.0 °F 51.8 °F 77% 29.88 in 10.0 mi WSW 11.5 mph - N/A   Clear
10:15 AM 62.6 °F 51.8 °F 68% 29.88 in 10.0 mi WSW 9.2 mph - N/A   Clear
10:35 AM 62.6 °F 51.8 °F 68% 29.88 in 10.0 mi West 11.5 mph - N/A   Clear
10:55 AM 64.4 °F 51.8 °F 64% 29.88 in 10.0 mi WSW 10.4 mph - N/A   Clear
11:15 AM 66.2 °F 51.8 °F 60% 29.87 in 10.0 mi West 11.5 mph - N/A   Clear
11:35 AM 66.2 °F 51.8 °F 60% 29.88 in 10.0 mi WSW 10.4 mph - N/A   Clear
11:55 AM 68.0 °F 51.8 °F 56% 29.88 in 10.0 mi West 13.8 mph 19.6 mph N/A   Clear
12:15 PM 66.2 °F 51.8 °F 60% 29.88 in 10.0 mi WSW 12.7 mph 18.4 mph N/A   Clear
12:35 PM 68.0 °F 51.8 °F 56% 29.88 in 10.0 mi WSW 13.8 mph - N/A   Clear
12:55 PM 69.8 °F 50.0 °F 49% 29.87 in 10.0 mi West 12.7 mph 19.6 mph N/A   Clear
1:15 PM 69.8 °F 50.0 °F 49% 29.87 in 10.0 mi West 13.8 mph 20.7 mph N/A   Clear
1:35 PM 71.6 °F 50.0 °F 46% 29.87 in 10.0 mi West 16.1 mph - N/A   Clear
1:55 PM 71.6 °F 48.2 °F 43% 29.87 in 10.0 mi WNW 13.8 mph - N/A   Clear
2:15 PM 73.4 °F 48.2 °F 41% 29.86 in 10.0 mi West 16.1 mph - N/A   Clear
2:35 PM 73.4 °F 46.4 °F 38% 29.86 in 10.0 mi West 17.3 mph 23.0 mph N/A   Clear
2:55 PM 73.4 °F 46.4 °F 38% 29.85 in 10.0 mi West 16.1 mph 23.0 mph N/A   Clear
3:15 PM 73.4 °F 46.4 °F 38% 29.85 in 10.0 mi West 15.0 mph 23.0 mph N/A   Clear
3:35 PM 75.2 °F 46.4 °F 36% 29.84 in 10.0 mi West 18.4 mph - N/A   Partly Cloudy
3:55 PM 75.2 °F 46.4 °F 36% 29.84 in 10.0 mi West 12.7 mph 21.9 mph N/A   Clear
4:15 PM 75.2 °F 44.6 °F 34% 29.84 in 10.0 mi West 17.3 mph 24.2 mph N/A   Clear
4:35 PM 75.2 °F 44.6 °F 34% 29.84 in 10.0 mi West 12.7 mph 19.6 mph N/A   Clear
4:55 PM 75.2 °F 44.6 °F 34% 29.84 in 10.0 mi West 13.8 mph 21.9 mph N/A   Clear
5:15 PM 75.2 °F 44.6 °F 34% 29.83 in 10.0 mi WSW 15.0 mph 26.5 mph N/A   Clear
5:35 PM 75.2 °F 44.6 °F 34% 29.83 in 10.0 mi West 16.1 mph - N/A   Partly Cloudy
6:15 PM 75.2 °F 44.6 °F 34% 29.84 in 10.0 mi WSW 15.0 mph - N/A   Scattered Clouds
6:35 PM 71.6 °F 44.6 °F 38% 29.85 in 10.0 mi West 9.2 mph 17.3 mph N/A   Partly Cloudy
6:55 PM 71.6 °F 44.6 °F 38% 29.85 in 10.0 mi WSW 10.4 mph - N/A   Clear
7:15 PM 69.8 °F 46.4 °F 43% 29.85 in 10.0 mi WSW 8.1 mph - N/A   Clear
7:35 PM 66.2 °F 46.4 °F 49% 29.85 in 10.0 mi WSW 9.2 mph - N/A   Clear
7:55 PM 64.4 °F 46.4 °F 52% 29.85 in 10.0 mi West 9.2 mph - N/A   Clear
8:15 PM 60.8 °F 46.4 °F 59% 29.85 in 10.0 mi West 8.1 mph - N/A   Clear
8:35 PM 59.0 °F 48.2 °F 67% 29.85 in 10.0 mi West 5.8 mph - N/A   Clear
8:55 PM 57.2 °F 48.2 °F 72% 29.85 in 10.0 mi WSW 8.1 mph - N/A   Clear
9:15 PM 57.2 °F 48.2 °F 72% 29.86 in 10.0 mi SW 10.4 mph - N/A   Clear
9:35 PM 59.0 °F 46.4 °F 63% 29.86 in 10.0 mi WSW 10.4 mph - N/A   Clear
9:55 PM 57.2 °F 46.4 °F 67% 29.86 in 10.0 mi SW 9.2 mph - N/A   Clear
10:15 PM 55.4 °F 48.2 °F 77% 29.86 in 10.0 mi SW 9.2 mph - N/A   Clear
10:35 PM 53.6 °F 48.2 °F 82% 29.86 in 10.0 mi SW 8.1 mph - N/A   Clear
10:55 PM 53.6 °F 50.0 °F 88% 29.86 in 10.0 mi SW 6.9 mph - N/A   Clear
11:15 PM 53.6 °F 50.0 °F 88% 29.86 in 10.0 mi SSW 9.2 mph - N/A   Clear
11:35 PM 53.6 °F 50.0 °F 88% 29.86 in 10.0 mi South 8.1 mph - N/A   Clear
11:55 PM 53.6 °F 50.0 °F 88% 29.86 in 10.0 mi SSW 9.2 mph - N/A   Clear